STARLINK-35183, 65646

Orbit data source: Space-Track

STARLINK-35183, 65646 is a payload satellite owned by SpaceX/Seattle (US) in LEO that was launched on Thu, 18 Sep 2025 UTC via an FALCON 9 launch vehicle from the Air Force Eastern Test Range (AFETR). Payload-class satellites include a variety of spacecraft equipped with specific instruments for various scientific and technological missions. These include communications satellites like Starlink; space stations such as the ISS; scientific satellites like the Hubble; Earth observation satellites from companies like Planet Labs, Umbra, and HawkEye 360; GPS; miniature CubeSats for education and research; and military/defense satellites.

Loading next visibility...
Identifier
65646, 2025-210AA
Orbit
LEO
Country
Flag of USUS
Related business
Manufacturer
SpaceX/Seattle
Mission
Operational Commercial Communications
Bus & Motor
STARLINK V2MO, Unknown motor
Mass
575 kg wet, ~530 kg dry
Launch date (UTC)
2025-09-18 (9 months ago)
Launch vehicle
FALCON 9
Launch site
Air Force Eastern Test Range (AFETR)
Object type
Payload
Rocket body
Debris
Shape & HBR
Box + 2 Pan, 17.7 m
Radar Cross Section
36.964 m², Large (>1 m²)

Expand to show TLE details & history
Last TLE update: 14 hours ago

TLE from 14 hours ago
0 STARLINK-35183
1 65646U 25210AA  26171.33676127  .00021387  00000-0  73186-3 0  9998
2 65646  53.1574 190.5128 0000954  74.1264 285.9842 15.30212637 43445
Epoch: 2026-06-20T08:04Z
TLE epoch observation values (Epoch: 2026-06-20T08:04:56.173Z)
Latitude
-0.00002°
Longitude
160.72589°
Altitude
475.897 km
Speed
7.629 km/s
True Right ascension
12h 42m 03s
True Declination
0° 00' 00"
Sunlit
Object was in daylight at epoch
Visualization orbit readout
Latitude
Unknown
Longitude
Unknown
Altitude
Unknown
Speed
Unknown
Apparent Right ascension
Unknown
Apparent Declination
Unknown
Sunlit
N/A
Visualization observer readout
Local Sidereal Time
08:32:41
Azimuth
Unknown
Elevation
Unknown
Doppler factor
Unknown
Orbital elements
Apogee altitude
476.088 km
Perigee altitude
474.78 km
Semi-major axis
6,853.571 km
Eccentricity
0.0001
Inclination
53.1574°
RAAN
190.5128°
Arg. of periapsis
74.1264°
True anomaly
285.97369°
Mean anomaly
285.9842°
Eccentric anomaly
285.97895°
Mean motion
3.82532 °/min
Orbital period
94.11 mins
BSTAR
0.00073186
Loading maneuver chart data...
Computing Atmospheric mass density...
Loading historical data...
Loading historical data...
Loading historical data...
Loading historical data...
Loading historical data...
Loading historical data...
Loading historical data...

Documentation

Showing up to 5 results
|